CW3422 Weather Reports


Display with metric or nautical units.
time (UTC)temp
F
wind
direction
speed
MPH
gust
MPH
rain 1hr
in
rain 24hr
in
rain mn
in
humidity
%
barometer
mb
20200124131704 40 74 1.0 3.0 0.00 0.00 0.00 93 1027.4
20200124131203 39 80 0.0 7.0 0.00 0.00 0.00 94 1027.3
20200124130704 39 77 2.0 3.0 0.00 0.00 0.00 94 1027.3
20200124130204 39 71 1.0 3.0 0.00 0.00 0.00 94 1027.1
20200124124704 38 42 1.0 3.0 0.00 0.00 0.00 94 1027.0
20200124124204 37 64 1.0 3.0 0.00 0.00 0.00 95 1027.0
20200124123704 37 64 1.0 3.0 0.00 0.00 0.00 95 1027.0
20200124123203 37 75 1.0 3.0 0.00 0.00 0.00 95 1026.8
20200124121204 35 63 1.0 2.0 0.00 0.00 0.00 95 1026.6
20200124120704 34 65 1.0 2.0 0.00 0.00 0.00 95 1026.7
20200124120203 34 30 0.0 0.0 0.00 0.00 0.00 95 1026.6
20200124114704 33 29 0.0 0.0 0.00 0.00 0.00 95 1026.5
20200124114204 33 29 0.0 1.0 0.00 0.00 0.00 95 1026.6
20200124113704 33 20 0.0 1.0 0.00 0.00 0.00 94 1026.8
20200124110704 33 73 0.0 1.0 0.00 0.00 0.00 94 1026.7
20200124104204 33 73 1.0 2.0 0.00 0.00 0.00 95 1026.7
20200124103204 32 73 0.0 1.0 0.00 0.00 0.00 95 1026.9
20200124101704 31 73 0.0 0.0 0.00 0.00 0.00 94 1026.8
20200124101204 31 73 0.0 0.0 0.00 0.00 0.00 94 1026.8
20200124100704 31 73 0.0 0.0 0.00 0.00 0.00 94 1026.8
20200124100204 31 73 0.0 0.0 0.00 0.00 0.00 95 1026.8
20200124091718 30 73 0.0 0.0 0.00 0.00 0.00 94 1026.7
20200124091205 30 73 0.0 0.0 0.00 0.00 0.00 93 1026.6
20200124090705 31 73 0.0 0.0 0.00 0.00 0.00 93 1026.7
20200124090206 31 73 0.0 0.0 0.00 0.00 0.00 93 1026.7
20200124084205 32 73 0.0 0.0 0.00 0.00 0.00 92 1026.5
20200124083705 33 73 0.0 0.0 0.00 0.00 0.00 92 1026.5
20200124083205 33 73 0.0 1.0 0.00 0.00 0.00 92 1026.4
20200124081705 35 73 0.0 1.0 0.00 0.00 0.00 92 1026.4
20200124081205 35 73 0.0 0.0 0.00 0.00 0.00 91 1026.4
20200124080706 35 73 0.0 2.0 0.00 0.00 0.00 91 1026.3
20200124080205 35 73 0.0 3.0 0.00 0.00 0.00 91 1026.3
20200124074705 36 59 0.0 0.0 0.00 0.00 0.00 92 1026.3
20200124073706 35 59 0.0 2.0 0.00 0.00 0.00 92 1026.5
20200124073205 35 61 1.0 3.0 0.00 0.00 0.00 92 1026.6
20200124071705 34 87 0.0 1.0 0.00 0.00 0.00 92 1026.9
20200124071206 34 87 0.0 1.0 0.00 0.00 0.00 92 1027.0
20200124064705 33 304 0.0 0.0 0.00 0.00 0.00 92 1027.1
20200124063705 32 304 0.0 0.0 0.00 0.00 0.00 92 1027.1
20200124061705 32 304 0.0 0.0 0.00 0.00 0.00 92 1027.0
20200124061205 32 304 0.0 0.0 0.00 0.00 0.00 92 1026.9
20200124060705 32 304 0.0 0.0 0.00 0.00 0.00 92 1027.0
20200124060205 31 304 0.0 0.0 0.00 0.00 0.00 92 1026.9
20200124054705 31 304 0.0 0.0 0.00 0.00 0.00 92 1026.9
20200124054205 31 304 0.0 0.0 0.00 0.00 0.00 92 1026.9
20200124053705 31 304 0.0 0.0 0.00 0.00 0.00 92 1026.9
20200124053205 31 304 0.0 0.0 0.00 0.00 0.00 91 1026.9
20200124051705 32 304 0.0 0.0 0.00 0.00 0.00 91 1027.1
20200124051205 32 304 0.0 0.0 0.00 0.00 0.00 91 1027.2
20200124050205 32 304 0.0 0.0 0.00 0.00 0.00 90 1027.0
20200124044705 32 304 0.0 0.0 0.00 0.00 0.00 90 1027.3
20200124044205 33 304 0.0 0.0 0.00 0.00 0.00 90 1027.5
20200124041705 32 304 0.0 0.0 0.00 0.00 0.00 90 1027.6
20200124041204 32 304 0.0 0.0 0.00 0.00 0.00 89 1027.6
20200124040705 32 304 0.0 0.0 0.00 0.00 0.00 90 1027.6
20200124034705 32 304 0.0 0.0 0.00 0.00 0.00 90 1027.6
20200124034205 32 304 0.0 0.0 0.00 0.00 0.00 90 1027.5
20200124033705 32 304 0.0 0.0 0.00 0.00 0.00 90 1027.6
20200124033205 32 304 0.0 0.0 0.00 0.00 0.00 90 1027.5
20200124031705 32 304 0.0 0.0 0.00 0.00 0.00 90 1027.6
20200124031205 32 304 0.0 0.0 0.00 0.00 0.00 90 1027.6
20200124030705 31 304 0.0 0.0 0.00 0.00 0.00 90 1027.7
20200124024705 31 304 0.0 0.0 0.00 0.00 0.00 89 1027.7
20200124024205 31 304 0.0 0.0 0.00 0.00 0.00 89 1027.6
20200124023705 31 304 0.0 0.0 0.00 0.00 0.00 89 1027.8
20200124023204 31 304 0.0 0.0 0.00 0.00 0.00 89 1027.8
20200124021705 31 304 0.0 0.0 0.00 0.00 0.00 89 1027.9
20200124020705 31 304 0.0 0.0 0.00 0.00 0.00 88 1027.8
20200124020204 31 304 0.0 0.0 0.00 0.00 0.00 88 1027.7
20200124014705 31 304 0.0 0.0 0.00 0.00 0.00 88 1027.9
20200124013706 32 304 0.0 0.0 0.00 0.00 0.00 88 1028.1
20200124013205 32 304 0.0 0.0 0.00 0.00 0.00 87 1028.2
20200124011705 32 304 0.0 0.0 0.00 0.00 0.00 87 1028.6
20200124011205 32 304 0.0 0.0 0.00 0.00 0.00 87 1028.7
20200124010705 32 304 0.0 0.0 0.00 0.00 0.00 87 1028.7
20200124010204 32 304 0.0 0.0 0.00 0.00 0.00 87 1028.7
20200124004706 32 304 0.0 2.0 0.00 0.00 0.00 86 1028.8
20200124004205 32 304 0.0 2.0 0.00 0.00 0.00 86 1028.8
20200124003705 32 304 0.0 0.0 0.00 0.00 0.00 86 1028.8
20200124001704 33 304 0.0 1.0 0.00 0.00 0.00 85 1028.8
20200124001206 33 304 0.0 0.0 0.00 0.00 0.00 85 1028.8
20200124000705 33 304 0.0 1.0 0.00 0.00 0.00 85 1028.9
20200124000205 33 304 0.0 1.0 0.00 0.00 0.00 84 1028.8
20200123234704 34 304 0.0 0.0 0.00 0.00 0.00 84 1028.7
20200123234204 34 304 0.0 0.0 0.00 0.00 0.00 83 1028.6
20200123233704 34 304 0.0 0.0 0.00 0.00 0.00 83 1028.5
20200123231204 35 304 0.0 0.0 0.00 0.00 0.00 81 1028.2
20200123230704 35 304 0.0 0.0 0.00 0.00 0.00 81 1028.4
20200123230205 35 304 0.0 0.0 0.00 0.00 0.00 80 1028.3
20200123224705 36 304 0.0 0.0 0.00 0.00 0.00 79 1028.1
20200123224205 36 304 0.0 0.0 0.00 0.00 0.00 79 1028.2
20200123221704 37 304 0.0 0.0 0.00 0.00 0.00 77 1028.3
20200123221204 37 304 0.0 1.0 0.00 0.00 0.00 77 1028.1
20200123220705 38 304 0.0 1.0 0.00 0.00 0.00 76 1028.1
20200123220205 38 304 0.0 1.0 0.00 0.00 0.00 74 1027.9
20200123214706 39 304 0.0 1.0 0.00 0.00 0.00 73 1027.8
20200123214204 39 304 0.0 1.0 0.00 0.00 0.00 73 1028.0
20200123213704 39 304 0.0 0.0 0.00 0.00 0.00 73 1028.1
20200123213205 39 304 1.0 2.0 0.00 0.00 0.00 71 1028.1
20200123211704 39 304 0.0 0.0 0.00 0.00 0.00 69 1028.0
20200123211205 40 304 1.0 2.0 0.00 0.00 0.00 70 1028.0
20200123210705 40 252 1.0 2.0 0.00 0.00 0.00 71 1028.0
20200123210204 40 252 1.0 2.0 0.00 0.00 0.00 71 1028.0
20200123204705 41 150 1.0 2.0 0.00 0.00 0.00 73 1027.8
20200123204205 41 151 0.0 1.0 0.00 0.00 0.00 73 1027.8
20200123203705 41 151 0.0 2.0 0.00 0.00 0.00 72 1027.7
20200123203204 41 59 0.0 3.0 0.00 0.00 0.00 72 1027.6
20200123201705 41 63 0.0 3.0 0.00 0.00 0.00 71 1027.5
20200123201204 41 158 1.0 3.0 0.00 0.00 0.00 71 1027.5
20200123200704 42 54 0.0 3.0 0.00 0.00 0.00 71 1027.5
20200123200204 42 140 1.0 3.0 0.00 0.00 0.00 70 1027.4
20200123193208 42 90 1.0 5.0 0.00 0.00 0.00 68 1027.5
20200123191704 44 72 1.0 3.0 0.00 0.00 0.00 66 1027.4
20200123190205 44 57 2.0 3.0 0.00 0.00 0.00 66 1027.6
20200123184704 44 263 1.0 2.0 0.00 0.00 0.00 61 1027.6
20200123184205 44 263 1.0 2.0 0.00 0.00 0.00 58 1027.6
20200123183704 44 347 1.0 3.0 0.00 0.00 0.00 57 1027.6
20200123181204 44 264 1.0 3.0 0.00 0.00 0.00 59 1028.2
20200123180705 43 69 1.0 3.0 0.00 0.00 0.00 60 1028.4
20200123180205 43 340 1.0 3.0 0.00 0.00 0.00 58 1028.4
20200123174704 42 283 1.0 3.0 0.00 0.00 0.00 62 1028.7
20200123174205 41 282 1.0 3.0 0.00 0.00 0.00 61 1028.8
20200123173704 41 301 1.0 3.0 0.00 0.00 0.00 61 1028.9
20200123173205 41 346 2.0 6.0 0.00 0.00 0.00 60 1029.0
20200123171704 41 296 2.0 5.0 0.00 0.00 0.00 61 1029.4
20200123171204 41 298 1.0 3.0 0.00 0.00 0.00 61 1029.4
20200123170704 41 298 2.0 3.0 0.00 0.00 0.00 61 1029.6
20200123164705 42 16 0.0 2.0 0.00 0.00 0.00 66 1029.7
20200123163704 42 127 1.0 3.0 0.00 0.00 0.00 65 1029.7
20200123163205 42 78 2.0 3.0 0.00 0.00 0.00 64 1029.8
20200123161704 42 48 0.0 2.0 0.00 0.00 0.00 62 1030.1
20200123161205 41 48 1.0 3.0 0.00 0.00 0.00 60 1030.1
20200123160704 42 47 0.0 3.0 0.00 0.00 0.00 61 1030.0
20200123154204 40 75 1.0 3.0 0.00 0.00 0.00 58 1030.4
20200123153704 41 40 1.0 2.0 0.00 0.00 0.00 59 1030.5
20200123151704 40 35 1.0 3.0 0.00 0.00 0.00 57 1030.7
20200123151204 40 33 0.0 2.0 0.00 0.00 0.00 58 1030.6
20200123150704 39 14 1.0 3.0 0.00 0.00 0.00 58 1030.5
20200123150204 39 76 1.0 3.0 0.00 0.00 0.00 60 1030.5
20200123144204 37 65 1.0 2.0 0.00 0.00 0.00 64 1030.7
20200123143204 36 9 1.0 3.0 0.00 0.00 0.00 65 1030.6
20200123141704 35 348 1.0 2.0 0.00 0.00 0.00 67 1030.8
20200123141205 34 298 0.0 1.0 0.00 0.00 0.00 68 1030.8
20200123140704 34 295 0.0 2.0 0.00 0.00 0.00 68 1030.7
20200123140204 34 290 0.0 1.0 0.00 0.00 0.00 70 1030.7
20200123134704 32 290 0.0 0.0 0.00 0.00 0.00 76 1030.6
20200123133704 30 290 0.0 0.0 0.00 0.00 0.00 86 1030.6
20200123133204 29 290 0.0 0.0 0.00 0.00 0.00 87 1030.7